This is the latest recevied weather packets stored in our database for station/object W4SNA-3. If no packets are shown the sender has not sent any weather packets the latest 10 day(s).
| Time | Temp. | Humidity | Pressure | Rain* | Wind** | Luminosity | Snow |
|---|---|---|---|---|---|---|---|
| 1777754211 | 13.89° C | 38% | 1008.9 hPa | 0 mm | - | - | - |
| 1777753918 | 14.44° C | 40% | 1008.9 hPa | 0 mm | - | - | - |
| 1777753308 | 13.89° C | 40% | 1009 hPa | 0 mm | - | - | - |
| 1777753020 | 13.33° C | 41% | 1008.9 hPa | 0 mm | - | - | - |
| 1777752708 | 13.89° C | 39% | 1008.8 hPa | 0 mm | - | - | - |
| 1777752408 | 14.44° C | 38% | 1008.8 hPa | 0 mm | - | - | - |
| 1777752108 | 14.44° C | 38% | 1008.8 hPa | 0 mm | - | - | - |
| 1777751808 | 15° C | 38% | 1008.8 hPa | 0 mm | - | - | - |
| 1777751510 | 14.44° C | 39% | 1008.9 hPa | 0 mm | - | - | - |
| 1777751210 | 14.44° C | 36% | 1009.1 hPa | 0 mm | - | - | - |
| 1777750908 | 14.44° C | 36% | 1009.1 hPa | 0 mm | - | - | - |
| 1777750608 | 15° C | 38% | 1009.3 hPa | 0 mm | - | - | - |
| 1777750314 | 15° C | 38% | 1009.4 hPa | 0 mm | - | - | - |
| 1777750008 | 15° C | 37% | 1009.3 hPa | 0 mm | - | - | - |
| 1777749708 | 15° C | 37% | 1009.3 hPa | 0 mm | - | - | - |
| 1777749408 | 15° C | 38% | 1009.2 hPa | 0 mm | - | - | - |
| 1777749108 | 15° C | 37% | 1009.3 hPa | 0 mm | - | - | - |
| 1777748808 | 15° C | 35% | 1009.3 hPa | 0 mm | - | - | - |
| 1777748508 | 15.56° C | 36% | 1009.3 hPa | 0 mm | - | - | - |
| 1777748208 | 15.56° C | 37% | 1009.5 hPa | 0 mm | - | - | - |
| 1777747909 | 15.56° C | 39% | 1009.4 hPa | 0 mm | - | - | - |
| 1777747608 | 15.56° C | 40% | 1009.4 hPa | 0 mm | - | - | - |
| 1777747308 | 15.56° C | 36% | 1009.4 hPa | 0 mm | - | - | - |
| 1777747008 | 15° C | 38% | 1009.3 hPa | 0 mm | - | - | - |
| 1777746708 | 15° C | 38% | 1009.5 hPa | 0 mm | - | - | - |
* Rain latest hour (hover to see other rain measurements)
** Current wind speed in m/s (hover to see current wind gust speed)